Location: A�t Lahcen
(32.8243°N, 5.4246°W)
Time: 02:14:19
(UTC+00:00)

Lacrosse 5 rocket - Pass Details

Date: 27 January 2021
Orbit: 464 x 630 km, 57.0° (Epoch: 26 February)

Event Time Altitude Azimuth Distance (km) Brightness Sun altitude
Exits shadow 06:15:44 23° 273° (W) 1,069 2.2 -13.7°
Maximum altitude 06:17:00 29° 238° (WSW) 914 2.1 -13.4°
Drops below altitude 10° 06:20:12 10° 177° (S) 1,630 3.9 -12.7°
Sets 06:22:28 0° 166° (SSE) 2,489 5.1 -12.3°
